Вернуться в каталог

STARLINK-31313

АктивенСвязьVLEO
NORAD 59088·PAYLOAD·🇺🇸 United States

Запущен Feb 29, 2024 с Cape Canaveral Space Force Station

Loading…

Ближайшие Пролёты (ближайшие 24 часа)

TLE

СвежийSource: CelesTrak SupGP

Эпоха: Sep 14, 2026, 21:40 UTC

1 59088C 24041Q   26257.90326389 -.00027609  00000+0 -10001-2 0  2579
2 59088  43.0014 322.0025 0001629 267.8442 347.5409 15.27590120    14

Отслеживайте STARLINK-31313 в реальном времени с AllMySat

Download on the App Store